TimeAST,TemperatureF,Dew PointF,Humidity,Sea Level PressureIn,VisibilityMPH,Wind Direction,Wind SpeedMPH,Gust SpeedMPH,PrecipitationIn,Events,Conditions,WindDirDegrees,DateUTC
12:53 AM,79.0,75.0,88,30.02,10.0,East,5.8,-,N/A,,Clear,90,2013-07-28 04:53:00
1:53 AM,79.0,75.0,88,30.01,10.0,East,4.6,-,N/A,,Clear,80,2013-07-28 05:53:00
2:53 AM,79.0,75.0,88,30.00,10.0,East,3.5,-,N/A,,Clear,80,2013-07-28 06:53:00
3:53 AM,80.1,75.0,85,29.99,10.0,Calm,Calm,-,N/A,,Clear,0,2013-07-28 07:53:00
4:53 AM,80.1,75.9,87,30.00,10.0,East,3.5,-,N/A,,Clear,100,2013-07-28 08:53:00
5:53 AM,79.0,75.9,90,30.01,10.0,East,3.5,-,N/A,,Clear,90,2013-07-28 09:53:00
6:53 AM,81.0,75.9,85,30.02,10.0,Calm,Calm,-,N/A,,Clear,0,2013-07-28 10:53:00
8:53 AM,82.0,77.0,85,30.05,9.0,ESE,15.0,-,0.02,Rain,Light Rain,120,2013-07-28 12:53:00
9:53 AM,84.9,77.0,77,30.04,10.0,East,6.9,-,0.18,,Clear,100,2013-07-28 13:53:00
10:53 AM,82.9,79.0,88,30.04,10.0,WSW,4.6,-,0.02,,Scattered Clouds,240,2013-07-28 14:53:00
11:35 AM,80.6,78.8,94,30.04,7.0,SSW,9.2,-,0.06,Rain,Light Rain,200,2013-07-28 15:35:00
11:53 AM,79.0,78.1,97,30.04,10.0,SSW,6.9,-,0.06,Rain,Light Rain,200,2013-07-28 15:53:00
12:13 PM,80.6,78.8,94,30.03,10.0,SW,4.6,-,0.00,,Scattered Clouds,230,2013-07-28 16:13:00
12:53 PM,82.0,75.9,82,30.02,10.0,SW,5.8,-,0.00,,Mostly Cloudy,230,2013-07-28 16:53:00
1:00 PM,82.4,75.2,79,30.02,10.0,WSW,4.6,-,N/A,,Mostly Cloudy,240,2013-07-28 17:00:00
2:53 PM,80.1,79.0,96,29.99,6.0,SSW,9.2,-,0.21,Rain,Rain,210,2013-07-28 18:53:00
3:53 PM,80.1,78.1,94,30.00,10.0,Calm,Calm,-,0.04,Rain,Light Rain,0,2013-07-28 19:53:00
4:53 PM,80.1,79.0,96,29.99,10.0,Calm,Calm,-,0.04,Rain,Light Rain,0,2013-07-28 20:53:00
5:53 PM,78.1,75.9,93,30.00,6.0,NE,8.1,-,0.34,Rain,Heavy Rain,40,2013-07-28 21:53:00
6:21 PM,78.8,78.8,100,30.00,2.0,North,6.9,-,0.46,Rain,Heavy Rain,10,2013-07-28 22:21:00
6:35 PM,78.8,78.8,100,30.00,4.0,NNE,3.5,-,0.66,Rain,Heavy Rain,20,2013-07-28 22:35:00
6:53 PM,78.1,78.1,100,30.01,6.0,Calm,Calm,-,0.84,Rain,Heavy Rain,0,2013-07-28 22:53:00
7:08 PM,78.8,78.8,100,30.00,4.0,NE,6.9,-,0.30,Rain,Heavy Rain,50,2013-07-28 23:08:00
7:29 PM,78.8,75.2,89,30.01,10.0,ENE,6.9,-,0.43,Rain,Light Rain,60,2013-07-28 23:29:00
7:53 PM,78.1,75.0,90,30.01,10.0,East,3.5,-,0.43,,Overcast,100,2013-07-28 23:53:00
8:53 PM,78.1,75.0,90,30.02,10.0,East,5.8,-,N/A,,Overcast,90,2013-07-29 00:53:00
9:53 PM,80.1,77.0,90,30.03,10.0,Calm,Calm,-,N/A,,Clear,0,2013-07-29 01:53:00
10:53 PM,79.0,77.0,94,30.04,10.0,Calm,Calm,-,N/A,,Partly Cloudy,0,2013-07-29 02:53:00
11:53 PM,79.0,77.0,94,30.03,10.0,East,4.6,-,N/A,,Clear,90,2013-07-29 03:53:00